Zurück zum Katalog

NAVSTAR 81

USA 319

AktivNavigationHEO
NORAD 48859·PAYLOAD·🇺🇸 United States

Gestartet Jun 17, 2021 von Cape Canaveral Space Force Station

Loading…

Nächste Überflüge (nächste 24 Stunden)

TLE

AktuellSource: CelesTrak SupGP

Epoche: Sep 16, 2026, 16:44 UTC

1 48859C 21054A   26259.69756944  .00000000  00000+0  00000+0 0  2597
2 48859  55.1244 328.7782 0028573 230.8257  93.4073  2.00563866    19

Verfolge NAVSTAR 81 in Echtzeit mit AllMySat

Download on the App Store